| time (UTC) | temp F | wind direction | speed MPH | gust MPH | rain 1hr in | rain 24hr in | rain mn in | humidity % | barometer mb |
| 20260906131802 | 60 | 129 | 2.0 | 5.0 | 0.00 | 0.00 | 0.00 | 50 | 1019.4 |
| 20260906130902 | 60 | 86 | 3.0 | 6.0 | 0.00 | 0.00 | 0.00 | 51 | 1019.2 |
| 20260906130023 | 60 | 88 | 1.0 | 5.0 | 0.00 | 0.00 | 0.00 | 52 | 1019.2 |
| 20260906125402 | 60 | 0 | 0.0 | 0.0 | 0.00 | 0.00 | 0.00 | 52 | 1019.2 |
| 20260906124502 | 60 | 0 | 0.0 | 2.0 | 0.00 | 0.00 | 0.00 | 52 | 1019.2 |
| 20260906123602 | 61 | 88 | 0.0 | 4.0 | 0.00 | 0.00 | 0.00 | 52 | 1019.3 |
| 20260906122702 | 62 | 95 | 2.0 | 5.0 | 0.00 | 0.00 | 0.00 | 53 | 1019.2 |
| 20260906121802 | 63 | 108 | 2.0 | 4.0 | 0.00 | 0.00 | 0.00 | 53 | 1019.2 |
| 20260906120902 | 63 | 108 | 0.0 | 2.0 | 0.00 | 0.00 | 0.00 | 53 | 1019.3 |
| 20260906120002 | 63 | 108 | 1.0 | 2.0 | 0.00 | 0.00 | 0.00 | 53 | 1019.3 |
| 20260906115402 | 63 | 108 | 1.0 | 8.0 | 0.00 | 0.00 | 0.00 | 53 | 1019.3 |
| 20260906114502 | 63 | 180 | 4.0 | 8.0 | 0.00 | 0.00 | 0.00 | 53 | 1019.2 |
| 20260906113602 | 62 | 218 | 2.0 | 6.0 | 0.00 | 0.00 | 0.00 | 53 | 1019.2 |
| 20260906112723 | 62 | 289 | 2.0 | 6.0 | 0.00 | 0.00 | 0.00 | 54 | 1019.2 |
| 20260906111802 | 62 | 274 | 4.0 | 6.0 | 0.00 | 0.00 | 0.00 | 54 | 1019.1 |
| 20260906110902 | 62 | 173 | 3.0 | 5.0 | 0.00 | 0.00 | 0.00 | 53 | 1019.2 |
| 20260906110002 | 63 | 120 | 1.0 | 4.0 | 0.00 | 0.00 | 0.00 | 53 | 1019.1 |
| 20260906105423 | 62 | 120 | 1.0 | 2.0 | 0.00 | 0.00 | 0.00 | 53 | 1019.0 |
| 20260906104502 | 63 | 102 | 1.0 | 5.0 | 0.00 | 0.00 | 0.00 | 53 | 1018.9 |
| 20260906103602 | 64 | 0 | 0.0 | 5.0 | 0.00 | 0.00 | 0.00 | 51 | 1018.9 |
| 20260906102702 | 64 | 47 | 2.0 | 5.0 | 0.00 | 0.00 | 0.00 | 50 | 1018.9 |
| 20260906101802 | 65 | 91 | 1.0 | 7.0 | 0.00 | 0.00 | 0.00 | 50 | 1018.8 |
| 20260906100902 | 66 | 92 | 1.0 | 7.0 | 0.00 | 0.00 | 0.00 | 49 | 1018.8 |
| 20260906100002 | 66 | 84 | 3.0 | 9.0 | 0.00 | 0.00 | 0.00 | 49 | 1018.7 |
| 20260906095402 | 67 | 84 | 5.0 | 9.0 | 0.00 | 0.00 | 0.00 | 49 | 1018.7 |
| 20260906094502 | 67 | 75 | 6.0 | 11.0 | 0.00 | 0.00 | 0.00 | 48 | 1018.7 |
| 20260906093602 | 67 | 57 | 8.0 | 14.0 | 0.00 | 0.00 | 0.00 | 45 | 1018.6 |
| 20260906092702 | 68 | 56 | 9.0 | 12.0 | 0.00 | 0.00 | 0.00 | 44 | 1018.7 |
| 20260906091802 | 69 | 58 | 10.0 | 14.0 | 0.00 | 0.00 | 0.00 | 42 | 1018.6 |
| 20260906090902 | 70 | 60 | 8.0 | 13.0 | 0.00 | 0.00 | 0.00 | 37 | 1018.5 |
| 20260906090002 | 72 | 82 | 7.0 | 14.0 | 0.00 | 0.00 | 0.00 | 33 | 1018.5 |
| 20260906085423 | 72 | 88 | 8.0 | 14.0 | 0.00 | 0.00 | 0.00 | 33 | 1018.6 |
| 20260906084502 | 73 | 90 | 9.0 | 14.0 | 0.00 | 0.00 | 0.00 | 31 | 1018.5 |
| 20260906083602 | 73 | 93 | 8.0 | 14.0 | 0.00 | 0.00 | 0.00 | 31 | 1018.5 |
| 20260906082702 | 74 | 97 | 8.0 | 14.0 | 0.00 | 0.00 | 0.00 | 30 | 1018.5 |
| 20260906081802 | 73 | 101 | 8.0 | 14.0 | 0.00 | 0.00 | 0.00 | 30 | 1018.6 |
| 20260906080902 | 72 | 94 | 7.0 | 14.0 | 0.00 | 0.00 | 0.00 | 33 | 1018.6 |
| 20260906080002 | 72 | 95 | 8.0 | 15.0 | 0.00 | 0.00 | 0.00 | 33 | 1018.5 |
| 20260906075402 | 72 | 93 | 8.0 | 15.0 | 0.00 | 0.00 | 0.00 | 34 | 1018.5 |
| 20260906074502 | 72 | 93 | 8.0 | 15.0 | 0.00 | 0.00 | 0.00 | 33 | 1018.5 |
| 20260906073602 | 73 | 95 | 7.0 | 14.0 | 0.00 | 0.00 | 0.00 | 33 | 1018.6 |
| 20260906072723 | 73 | 92 | 8.0 | 14.0 | 0.00 | 0.00 | 0.00 | 34 | 1018.5 |
| 20260906071802 | 73 | 96 | 7.0 | 13.0 | 0.00 | 0.00 | 0.00 | 35 | 1018.5 |
| 20260906070902 | 73 | 105 | 4.0 | 11.0 | 0.00 | 0.00 | 0.00 | 34 | 1018.6 |
| 20260906070002 | 75 | 105 | 4.0 | 11.0 | 0.00 | 0.00 | 0.00 | 32 | 1018.5 |
| 20260906065423 | 75 | 103 | 5.0 | 11.0 | 0.00 | 0.00 | 0.00 | 31 | 1018.5 |
| 20260906064502 | 76 | 95 | 7.0 | 19.0 | 0.00 | 0.00 | 0.00 | 30 | 1018.5 |
| 20260906063602 | 76 | 102 | 7.0 | 16.0 | 0.00 | 0.00 | 0.00 | 29 | 1018.3 |
| 20260906062702 | 75 | 92 | 8.0 | 16.0 | 0.00 | 0.00 | 0.00 | 29 | 1018.3 |
| 20260906061802 | 75 | 87 | 10.0 | 18.0 | 0.00 | 0.00 | 0.00 | 30 | 1018.2 |
| 20260906060902 | 75 | 86 | 10.0 | 18.0 | 0.00 | 0.00 | 0.00 | 29 | 1018.1 |
| 20260906060002 | 75 | 91 | 9.0 | 18.0 | 0.00 | 0.00 | 0.00 | 28 | 1018.1 |
| 20260906055402 | 75 | 87 | 9.0 | 15.0 | 0.00 | 0.00 | 0.00 | 28 | 1018.1 |
| 20260906054502 | 75 | 84 | 10.0 | 18.0 | 0.00 | 0.00 | 0.00 | 28 | 1018.0 |
| 20260906053602 | 75 | 84 | 10.0 | 15.0 | 0.00 | 0.00 | 0.00 | 29 | 1018.0 |
| 20260906052702 | 76 | 83 | 11.0 | 19.0 | 0.00 | 0.00 | 0.00 | 30 | 1018.0 |
| 20260906051802 | 76 | 86 | 11.0 | 19.0 | 0.00 | 0.00 | 0.00 | 29 | 1017.9 |
| 20260906050902 | 76 | 84 | 12.0 | 19.0 | 0.00 | 0.00 | 0.00 | 30 | 1017.9 |
| 20260906050002 | 75 | 107 | 7.0 | 14.0 | 0.00 | 0.00 | 0.00 | 32 | 1017.9 |
| 20260906045402 | 76 | 104 | 7.0 | 14.0 | 0.00 | 0.00 | 0.00 | 32 | 1017.9 |
| 20260906044502 | 76 | 92 | 8.0 | 16.0 | 0.00 | 0.00 | 0.00 | 30 | 1017.9 |
| 20260906043602 | 77 | 83 | 10.0 | 16.0 | 0.00 | 0.00 | 0.00 | 27 | 1017.8 |
| 20260906042702 | 77 | 77 | 11.0 | 19.0 | 0.00 | 0.00 | 0.00 | 26 | 1017.7 |
| 20260906041823 | 77 | 80 | 10.0 | 19.0 | 0.00 | 0.00 | 0.00 | 28 | 1017.7 |
| 20260906040902 | 77 | 83 | 7.0 | 19.0 | 0.00 | 0.00 | 0.00 | 28 | 1017.6 |
| 20260906040002 | 77 | 99 | 7.0 | 14.0 | 0.00 | 0.00 | 0.00 | 28 | 1017.6 |
| 20260906035402 | 76 | 85 | 6.0 | 11.0 | 0.00 | 0.00 | 0.00 | 31 | 1017.6 |
| 20260906034502 | 77 | 77 | 6.0 | 10.0 | 0.00 | 0.00 | 0.00 | 31 | 1017.5 |
| 20260906033623 | 78 | 108 | 3.0 | 6.0 | 0.00 | 0.00 | 0.00 | 24 | 1017.5 |
| 20260906032723 | 79 | 153 | 2.0 | 8.0 | 0.00 | 0.00 | 0.00 | 20 | 1017.4 |
| 20260906031802 | 80 | 140 | 5.0 | 12.0 | 0.00 | 0.00 | 0.00 | 19 | 1017.2 |
| 20260906030923 | 80 | 147 | 6.0 | 12.0 | 0.00 | 0.00 | 0.00 | 19 | 1017.1 |
| 20260906030023 | 81 | 152 | 8.0 | 14.0 | 0.00 | 0.00 | 0.00 | 19 | 1016.8 |
| 20260906025402 | 81 | 156 | 6.0 | 13.0 | 0.00 | 0.00 | 0.00 | 19 | 1016.8 |
| 20260906024502 | 81 | 162 | 7.0 | 16.0 | 0.00 | 0.00 | 0.00 | 19 | 1016.6 |
| 20260906023602 | 82 | 162 | 7.0 | 16.0 | 0.00 | 0.00 | 0.00 | 19 | 1016.3 |
| 20260906022702 | 82 | 155 | 10.0 | 21.0 | 0.00 | 0.00 | 0.00 | 19 | 1016.2 |
| 20260906021823 | 83 | 154 | 10.0 | 21.0 | 0.00 | 0.00 | 0.00 | 19 | 1016.0 |
| 20260906020902 | 83 | 150 | 9.0 | 20.0 | 0.00 | 0.00 | 0.00 | 19 | 1015.9 |
| 20260906020002 | 83 | 152 | 11.0 | 20.0 | 0.00 | 0.00 | 0.00 | 19 | 1015.9 |
| 20260906015402 | 83 | 151 | 11.0 | 21.0 | 0.00 | 0.00 | 0.00 | 19 | 1015.9 |
| 20260906014502 | 83 | 149 | 10.0 | 16.0 | 0.00 | 0.00 | 0.00 | 19 | 1015.9 |
| 20260906013602 | 84 | 146 | 10.0 | 18.0 | 0.00 | 0.00 | 0.00 | 19 | 1016.0 |
| 20260906012702 | 85 | 139 | 11.0 | 21.0 | 0.00 | 0.00 | 0.00 | 18 | 1016.1 |
| 20260906011802 | 85 | 137 | 9.0 | 15.0 | 0.00 | 0.00 | 0.00 | 19 | 1016.2 |
| 20260906010923 | 85 | 132 | 8.0 | 18.0 | 0.00 | 0.00 | 0.00 | 19 | 1016.2 |
| 20260906010002 | 86 | 124 | 6.0 | 18.0 | 0.00 | 0.00 | 0.00 | 20 | 1016.2 |
| 20260906005402 | 86 | 130 | 4.0 | 13.0 | 0.00 | 0.00 | 0.00 | 21 | 1016.2 |
| 20260906004502 | 87 | 100 | 6.0 | 13.0 | 0.00 | 0.00 | 0.00 | 20 | 1016.3 |
| 20260906003602 | 87 | 89 | 7.0 | 12.0 | 0.00 | 0.00 | 0.00 | 19 | 1016.2 |
| 20260906002702 | 87 | 90 | 7.0 | 15.0 | 0.00 | 0.00 | 0.00 | 20 | 1016.2 |
| 20260906001802 | 87 | 92 | 8.0 | 15.0 | 0.00 | 0.00 | 0.00 | 19 | 1016.2 |
| 20260906000902 | 88 | 101 | 7.0 | 12.0 | 0.00 | 0.00 | 0.00 | 19 | 1016.2 |
| 20260906000002 | 88 | 86 | 7.0 | 12.0 | 0.00 | 0.00 | 0.00 | 18 | 1016.3 |
| 20260905235402 | 88 | 86 | 7.0 | 11.0 | 0.00 | 0.00 | 0.00 | 18 | 1016.2 |
| 20260905234502 | 88 | 89 | 8.0 | 15.0 | 0.00 | 0.00 | 0.00 | 19 | 1016.3 |
| 20260905233602 | 88 | 87 | 8.0 | 16.0 | 0.00 | 0.00 | 0.00 | 18 | 1016.2 |
| 20260905232702 | 88 | 91 | 9.0 | 19.0 | 0.00 | 0.00 | 0.00 | 17 | 1016.4 |
| 20260905231823 | 88 | 97 | 8.0 | 19.0 | 0.00 | 0.00 | 0.00 | 17 | 1016.6 |
| 20260905230902 | 88 | 96 | 8.0 | 13.0 | 0.00 | 0.00 | 0.00 | 17 | 1016.6 |
| 20260905230023 | 88 | 99 | 7.0 | 12.0 | 0.00 | 0.00 | 0.00 | 17 | 1016.8 |
| 20260905225402 | 88 | 101 | 8.0 | 16.0 | 0.00 | 0.00 | 0.00 | 17 | 1016.6 |
| 20260905224502 | 89 | 86 | 8.0 | 16.0 | 0.00 | 0.00 | 0.00 | 17 | 1016.8 |
| 20260905223602 | 89 | 94 | 7.0 | 15.0 | 0.00 | 0.00 | 0.00 | 18 | 1016.9 |
| 20260905222723 | 89 | 93 | 8.0 | 15.0 | 0.00 | 0.00 | 0.00 | 18 | 1016.9 |
| 20260905221802 | 89 | 93 | 7.0 | 15.0 | 0.00 | 0.00 | 0.00 | 17 | 1017.0 |
| 20260905220902 | 88 | 92 | 7.0 | 15.0 | 0.00 | 0.00 | 0.00 | 17 | 1017.2 |
| 20260905220002 | 88 | 90 | 8.0 | 16.0 | 0.00 | 0.00 | 0.00 | 18 | 1017.3 |
| 20260905215402 | 88 | 93 | 8.0 | 16.0 | 0.00 | 0.00 | 0.00 | 18 | 1017.4 |
| 20260905214502 | 88 | 94 | 10.0 | 16.0 | 0.00 | 0.00 | 0.00 | 18 | 1017.6 |
| 20260905213602 | 88 | 91 | 9.0 | 16.0 | 0.00 | 0.00 | 0.00 | 18 | 1017.6 |
| 20260905212723 | 88 | 88 | 9.0 | 19.0 | 0.00 | 0.00 | 0.00 | 19 | 1017.7 |
| 20260905211802 | 87 | 89 | 11.0 | 21.0 | 0.00 | 0.00 | 0.00 | 19 | 1017.7 |
| 20260905210902 | 87 | 83 | 11.0 | 21.0 | 0.00 | 0.00 | 0.00 | 21 | 1017.9 |
| 20260905210002 | 86 | 86 | 10.0 | 18.0 | 0.00 | 0.00 | 0.00 | 21 | 1017.9 |
| 20260905205402 | 86 | 95 | 9.0 | 20.0 | 0.00 | 0.00 | 0.00 | 21 | 1018.0 |
| 20260905204523 | 86 | 92 | 10.0 | 20.0 | 0.00 | 0.00 | 0.00 | 21 | 1018.1 |
| 20260905203602 | 85 | 91 | 11.0 | 21.0 | 0.00 | 0.00 | 0.00 | 23 | 1018.1 |
| 20260905202702 | 85 | 81 | 11.0 | 21.0 | 0.00 | 0.00 | 0.00 | 23 | 1018.2 |
| 20260905201802 | 85 | 84 | 10.0 | 19.0 | 0.00 | 0.00 | 0.00 | 24 | 1018.4 |
| 20260905200902 | 85 | 83 | 11.0 | 22.0 | 0.00 | 0.00 | 0.00 | 22 | 1018.5 |
| 20260905200023 | 85 | 78 | 12.0 | 22.0 | 0.00 | 0.00 | 0.00 | 23 | 1018.5 |
| 20260905195402 | 84 | 82 | 11.0 | 22.0 | 0.00 | 0.00 | 0.00 | 23 | 1018.6 |
| 20260905194523 | 84 | 82 | 11.0 | 23.0 | 0.00 | 0.00 | 0.00 | 23 | 1018.7 |
| 20260905193602 | 84 | 79 | 12.0 | 23.0 | 0.00 | 0.00 | 0.00 | 22 | 1018.8 |
| 20260905192702 | 84 | 72 | 10.0 | 18.0 | 0.00 | 0.00 | 0.00 | 22 | 1019.0 |
| 20260905191802 | 84 | 79 | 10.0 | 20.0 | 0.00 | 0.00 | 0.00 | 24 | 1019.1 |
| 20260905190902 | 83 | 77 | 12.0 | 20.0 | 0.00 | 0.00 | 0.00 | 23 | 1019.4 |
| 20260905190023 | 83 | 91 | 12.0 | 20.0 | 0.00 | 0.00 | 0.00 | 23 | 1019.4 |
| 20260905185423 | 82 | 92 | 11.0 | 20.0 | 0.00 | 0.00 | 0.00 | 23 | 1019.5 |
| 20260905184502 | 82 | 86 | 10.0 | 22.0 | 0.00 | 0.00 | 0.00 | 24 | 1019.6 |
| 20260905183602 | 82 | 92 | 12.0 | 22.0 | 0.00 | 0.00 | 0.00 | 24 | 1019.7 |
| 20260905182702 | 81 | 91 | 12.0 | 22.0 | 0.00 | 0.00 | 0.00 | 24 | 1019.8 |
| 20260905181802 | 80 | 99 | 12.0 | 21.0 | 0.00 | 0.00 | 0.00 | 26 | 1019.9 |
| 20260905180902 | 80 | 97 | 11.0 | 20.0 | 0.00 | 0.00 | 0.00 | 26 | 1019.9 |
| 20260905180023 | 81 | 94 | 11.0 | 20.0 | 0.00 | 0.00 | 0.00 | 26 | 1020.0 |
| 20260905175423 | 80 | 96 | 10.0 | 20.0 | 0.00 | 0.00 | 0.00 | 28 | 1020.0 |
| 20260905174502 | 80 | 97 | 10.0 | 20.0 | 0.00 | 0.00 | 0.00 | 27 | 1020.1 |
| 20260905173602 | 80 | 95 | 9.0 | 21.0 | 0.00 | 0.00 | 0.00 | 27 | 1020.1 |
| 20260905172702 | 79 | 94 | 11.0 | 21.0 | 0.00 | 0.00 | 0.00 | 27 | 1020.1 |
| 20260905171802 | 79 | 92 | 10.0 | 20.0 | 0.00 | 0.00 | 0.00 | 28 | 1020.1 |
| 20260905170902 | 79 | 85 | 10.0 | 19.0 | 0.00 | 0.00 | 0.00 | 29 | 1020.2 |
| 20260905170002 | 78 | 89 | 9.0 | 15.0 | 0.00 | 0.00 | 0.00 | 32 | 1020.2 |
| 20260905165402 | 78 | 91 | 7.0 | 15.0 | 0.00 | 0.00 | 0.00 | 33 | 1020.2 |
| 20260905164502 | 77 | 105 | 5.0 | 10.0 | 0.00 | 0.00 | 0.00 | 40 | 1020.4 |
| 20260905163602 | 76 | 93 | 5.0 | 10.0 | 0.00 | 0.00 | 0.00 | 40 | 1020.4 |
| 20260905162702 | 75 | 104 | 5.0 | 9.0 | 0.00 | 0.00 | 0.00 | 41 | 1020.4 |
| 20260905161802 | 74 | 96 | 6.0 | 10.0 | 0.00 | 0.00 | 0.00 | 42 | 1020.4 |
| 20260905160902 | 74 | 97 | 5.0 | 10.0 | 0.00 | 0.00 | 0.00 | 43 | 1020.4 |
| 20260905160002 | 72 | 107 | 5.0 | 8.0 | 0.00 | 0.00 | 0.00 | 45 | 1020.4 |
| 20260905155403 | 72 | 108 | 5.0 | 8.0 | 0.00 | 0.00 | 0.00 | 45 | 1020.4 |
| 20260905154502 | 72 | 113 | 3.0 | 7.0 | 0.00 | 0.00 | 0.00 | 47 | 1020.5 |
| 20260905153602 | 71 | 142 | 3.0 | 7.0 | 0.00 | 0.00 | 0.00 | 48 | 1020.4 |
| 20260905152702 | 70 | 128 | 5.0 | 8.0 | 0.00 | 0.00 | 0.00 | 47 | 1020.5 |
| 20260905151802 | 70 | 119 | 4.0 | 7.0 | 0.00 | 0.00 | 0.00 | 49 | 1020.5 |
| 20260905150902 | 69 | 110 | 4.0 | 7.0 | 0.00 | 0.00 | 0.00 | 49 | 1020.4 |
| 20260905150002 | 68 | 112 | 4.0 | 8.0 | 0.00 | 0.00 | 0.00 | 48 | 1020.4 |
| 20260905145402 | 67 | 99 | 4.0 | 7.0 | 0.00 | 0.00 | 0.00 | 48 | 1020.4 |
| 20260905144505 | 65 | 105 | 1.0 | 6.0 | 0.00 | 0.00 | 0.00 | 45 | 1020.3 |
| 20260905143602 | 64 | 129 | 1.0 | 4.0 | 0.00 | 0.00 | 0.00 | 42 | 1020.4 |
| 20260905142702 | 64 | 137 | 0.0 | 2.0 | 0.00 | 0.00 | 0.00 | 40 | 1020.4 |
| 20260905141823 | 63 | 137 | 1.0 | 2.0 | 0.00 | 0.00 | 0.00 | 38 | 1020.2 |
| 20260905140902 | 62 | 137 | 0.0 | 2.0 | 0.00 | 0.00 | 0.00 | 39 | 1020.1 |
| 20260905140002 | 62 | 137 | 1.0 | 5.0 | 0.00 | 0.00 | 0.00 | 40 | 1020.0 |
| 20260905135402 | 62 | 137 | 1.0 | 5.0 | 0.00 | 0.00 | 0.00 | 42 | 1019.9 |
| 20260905134502 | 62 | 110 | 2.0 | 5.0 | 0.00 | 0.00 | 0.00 | 45 | 1019.7 |
| 20260905133602 | 62 | 50 | 0.0 | 2.0 | 0.00 | 0.00 | 0.00 | 49 | 1019.6 |
| 20260905132702 | 62 | 83 | 3.0 | 6.0 | 0.00 | 0.00 | 0.00 | 50 | 1019.5 |